GW5798 Weather Reports


time (UTC)temp
C
wind
direction
speed
KPH
gust
KPH
rain 1hr
cm
rain 24hr
cm
rain mn
cm
humidity
%
barometer
mb
20260510180048 32 261 3.2 9.7 0.00 0.00 0.00 58 1013.5
20260510175038 31 169 3.2 6.4 0.00 0.00 0.00 60 1013.6
20260510174027 31 356 1.6 4.8 0.00 0.00 0.00 59 1013.9
20260510173017 31 259 4.8 9.7 0.00 0.00 0.00 60 1014.0
20260510172108 31 318 3.2 9.7 0.00 0.00 0.00 62 1014.2
20260510171058 31 90 1.6 4.8 0.00 0.00 0.00 64 1014.3
20260510170108 31 153 3.2 6.4 0.00 0.00 0.00 62 1014.4
20260510165038 30 256 3.2 11.3 0.00 0.00 0.00 64 1014.4
20260510164028 31 170 3.2 6.4 0.00 0.00 0.00 63 1014.5
20260510163018 30 272 1.6 4.8 0.00 0.00 0.00 65 1014.6
20260510162109 30 267 1.6 9.7 0.00 0.00 0.00 69 1014.7
20260510161059 30 226 1.6 6.4 0.00 0.00 0.00 68 1014.8
20260510160049 29 336 1.6 6.4 0.00 0.00 0.00 69 1014.9
20260510155039 28 318 0.0 6.4 0.00 0.00 0.00 73 1015.0
20260510154029 28 289 3.2 6.4 0.00 0.00 0.00 70 1015.2
20260510153019 28 181 1.6 4.8 0.00 0.00 0.00 74 1015.2
20260510152110 27 335 0.0 3.2 0.00 0.00 0.00 76 1015.2
20260510151100 27 233 0.0 4.8 0.00 0.00 0.00 75 1015.2
20260510150050 28 16 0.0 4.8 0.00 0.00 0.00 77 1015.2
20260510145120 27 42 1.6 6.4 0.00 0.00 0.00 78 1015.0
20260510144030 27 151 1.6 6.4 0.00 0.00 0.00 79 1015.0
20260510143020 26 253 1.6 6.4 0.00 0.00 0.00 82 1015.1
20260510142111 25 181 0.0 4.8 0.00 0.00 0.00 85 1015.0
20260510141120 25 73 3.2 9.7 0.00 0.00 0.00 85 1015.0
20260510140051 25 232 1.6 4.8 0.00 0.00 0.00 86 1014.9
20260510135040 25 19 1.6 4.8 0.00 0.00 0.00 87 1014.7
20260510134030 25 70 3.2 6.4 0.00 0.00 0.00 88 1014.7
20260510133020 24 68 1.6 4.8 0.00 0.00 0.00 90 1014.5
20260510132111 24 244 0.0 3.2 0.00 0.00 0.00 91 1014.4
20260510131101 24 67 0.0 1.6 0.00 0.00 0.00 92 1014.1
20260510130111 23 74 0.0 1.6 0.00 0.00 0.00 93 1014.0
20260510125041 23 33 0.0 3.2 0.00 0.00 0.00 94 1013.8
20260510124031 23 0.0 0.0 0.00 0.00 0.00 95 1013.7
20260510123021 23 0.0 0.0 0.00 0.00 0.00 95 1013.3
20260510122112 22 0.0 0.0 0.00 0.00 0.00 95 1013.1
20260510121102 22 0.0 0.0 0.00 0.00 0.00 95 1012.8
20260510120052 22 0.0 0.0 0.00 0.00 0.00 94 1012.6
20260510115042 22 139 0.0 1.6 0.00 0.00 0.00 94 1012.3
20260510114032 23 186 0.0 3.2 0.00 0.00 0.00 94 1012.2
20260510113022 23 96 1.6 6.4 0.00 0.00 0.00 94 1012.0
20260510112113 23 215 0.0 3.2 0.00 0.00 0.00 94 1011.8
20260510111103 23 187 3.2 6.4 0.00 0.00 0.00 93 1011.6
20260510110053 23 204 0.0 3.2 0.00 0.00 0.00 93 1011.6
20260510105043 23 165 1.6 6.4 0.00 0.00 0.00 92 1011.5
20260510104033 23 156 1.6 4.8 0.00 0.00 0.00 92 1011.5
20260510103023 23 199 1.6 9.7 0.00 0.00 0.00 92 1011.6
20260510102134 23 115 1.6 6.4 0.00 0.00 0.00 92 1011.4
20260510101104 23 207 1.6 9.7 0.00 0.00 0.00 93 1011.4
20260510100053 23 19 3.2 6.4 0.00 0.00 0.00 93 1011.3
20260510095043 23 157 3.2 12.9 0.00 0.00 0.00 94 1011.2
20260510094033 23 200 3.2 9.7 0.00 0.00 0.00 94 1011.2
20260510093023 23 217 1.6 6.4 0.00 0.00 0.00 94 1011.1
20260510092114 23 156 1.6 9.7 0.00 0.00 0.00 94 1011.2
20260510091104 23 184 1.6 11.3 0.00 0.00 0.00 94 1011.3
20260510090054 23 153 1.6 6.4 0.00 0.00 0.00 94 1011.3
20260510085044 23 96 0.0 4.8 0.00 0.00 0.00 93 1011.5
20260510084114 23 167 1.6 4.8 0.00 0.00 0.00 93 1011.5
20260510083024 23 142 3.2 6.4 0.00 0.00 0.00 92 1011.3
20260510082115 23 141 1.6 6.4 0.00 0.00 0.00 92 1011.4
20260510081105 23 162 0.0 4.8 0.00 0.00 0.00 91 1011.5
20260510075045 23 125 0.0 3.2 0.00 0.00 0.00 91 1011.5
20260510074055 23 181 0.0 1.6 0.00 0.00 0.00 91 1011.5
20260510073045 23 255 0.0 1.6 0.00 0.00 0.00 90 1011.5
20260510072116 23 156 1.6 4.8 0.00 0.00 0.00 89 1011.3
20260510071106 23 189 0.0 1.6 0.00 0.00 0.00 89 1011.4
20260510070056 23 0.0 1.6 0.00 0.00 0.00 88 1011.5
20260510065046 23 150 1.6 6.4 0.00 0.00 0.00 88 1011.5
20260510064036 23 199 1.6 6.4 0.00 0.00 0.00 88 1011.4
20260510063026 23 132 1.6 3.2 0.00 0.00 0.00 88 1011.4
20260510062036 23 183 1.6 4.8 0.00 0.00 0.00 88 1011.5
20260510061107 23 295 1.6 4.8 0.00 0.00 0.00 88 1011.6
20260510060056 23 270 0.0 3.2 0.00 0.00 0.00 87 1011.6
20260510055107 23 255 0.0 6.4 0.00 0.00 0.00 86 1011.6
20260510054137 24 220 1.6 1.6 0.00 0.00 0.00 85 1011.7
20260510053027 23 236 1.6 4.8 0.00 0.00 0.00 84 1011.9
20260510052016 23 201 0.0 3.2 0.00 0.00 0.00 83 1011.9
20260510051107 23 149 0.0 3.2 0.00 0.00 0.00 82 1011.7
20260510050117 23 166 0.0 3.2 0.00 0.00 0.00 82 1011.6
20260510045047 24 249 1.6 4.8 0.00 0.00 0.00 81 1011.7
20260510044037 24 200 0.0 1.6 0.00 0.00 0.00 79 1011.8
20260510043027 24 312 0.0 3.2 0.00 0.00 0.00 78 1011.8
20260510042017 24 252 1.6 3.2 0.00 0.00 0.00 77 1012.0
20260510041108 24 134 1.6 3.2 0.00 0.00 0.00 76 1011.8
20260510040058 25 246 0.0 3.2 0.00 0.00 0.00 75 1011.9
20260510035048 25 91 1.6 3.2 0.00 0.00 0.00 74 1011.9
20260510034118 25 147 1.6 6.4 0.00 0.00 0.00 73 1011.9
20260510033028 24 242 0.0 4.8 0.00 0.00 0.00 74 1012.1
20260510032018 23 265 1.6 3.2 0.00 0.00 0.00 76 1011.9
20260510031109 23 26 1.6 4.8 0.00 0.00 0.00 75 1011.7
20260510030119 23 341 0.0 3.2 0.00 0.00 0.00 74 1011.6
20260510025149 24 36 1.6 6.4 0.00 0.00 0.00 76 1011.2
20260510024039 25 191 0.0 3.2 0.00 0.00 0.00 74 1010.8
20260510023028 25 41 1.6 4.8 0.00 0.00 0.00 73 1010.6
20260510022018 25 187 0.0 3.2 0.00 0.00 0.00 71 1010.1
20260510021210 25 148 0.0 1.6 0.00 0.00 0.00 72 1009.9
20260510020059 25 0.0 0.0 0.00 0.00 0.00 70 1009.6
20260510015049 25 0.0 1.6 0.00 0.00 0.00 68 1009.4
20260510014040 25 0.0 0.0 0.00 0.00 0.00 66 1009.2
20260510013029 25 0.0 1.6 0.00 0.00 0.00 63 1009.2
20260510012059 26 107 0.0 6.4 0.00 0.00 0.00 61 1009.2
20260510011130 25 273 0.0 3.2 0.00 0.00 0.00 61 1009.2
20260510010100 25 85 0.0 1.6 0.00 0.00 0.00 62 1009.1
20260510005050 25 216 1.6 1.6 0.00 0.00 0.00 61 1008.6
20260510004040 25 182 3.2 11.3 0.00 0.00 0.00 60 1009.0
20260510003030 25 131 0.0 4.8 0.00 0.00 0.00 60 1009.0
20260510002020 25 180 1.6 4.8 0.00 0.00 0.00 63 1009.1
20260510001111 24 120 1.6 9.7 0.00 0.00 0.00 65 1009.4
20260509235051 28 172 4.8 16.1 0.00 0.00 0.00 60 1008.9
20260509234041 29 157 4.8 11.3 0.00 0.00 0.00 55 1008.6
20260509233031 31 181 1.6 9.7 0.00 0.00 0.00 61 1008.4
20260509232021 31 0.0 3.2 0.00 0.00 0.00 61 1008.2
20260509231112 31 0.0 1.6 0.00 0.00 0.00 61 1008.5
20260509225052 31 250 0.0 1.6 0.00 0.00 0.00 59 1008.1
20260509224042 31 303 0.0 1.6 0.00 0.00 0.00 60 1008.0
20260509223032 31 74 0.0 1.6 0.00 0.00 0.00 60 1008.2
20260509222022 31 308 0.0 3.2 0.00 0.00 0.00 57 1008.0
20260509221113 32 28 0.0 3.2 0.00 0.00 0.00 59 1008.0
20260509215052 31 83 0.0 3.2 0.00 0.00 0.00 58 1007.9
20260509214123 31 13 0.0 3.2 0.00 0.00 0.00 60 1008.0
20260509213032 32 85 1.6 6.4 0.00 0.00 0.00 59 1008.0
20260509212022 32 37 0.0 4.8 0.00 0.00 0.00 61 1008.1
20260509211113 32 33 1.6 3.2 0.00 0.00 0.00 61 1008.2
20260509205053 32 51 1.6 3.2 0.00 0.00 0.00 61 1008.6
20260509204043 32 206 0.0 4.8 0.00 0.00 0.00 60 1008.7
20260509203113 31 80 0.0 1.6 0.00 0.00 0.00 63 1008.8
20260509202043 31 320 1.6 4.8 0.00 0.00 0.00 64 1008.7
20260509201114 31 315 0.0 4.8 0.00 0.00 0.00 63 1008.9
20260509200124 31 27 0.0 3.2 0.00 0.00 0.00 66 1009.0
20260509195054 31 105 1.6 3.2 0.00 0.00 0.00 63 1009.2
20260509194104 31 237 1.6 6.4 0.00 0.00 0.00 63 1009.2
20260509193034 31 25 0.0 3.2 0.00 0.00 0.00 64 1009.4
20260509192024 31 304 0.0 3.2 0.00 0.00 0.00 63 1009.4
20260509191115 31 88 0.0 1.6 0.00 0.00 0.00 62 1009.4
20260509190125 31 47 0.0 1.6 0.00 0.00 0.00 62 1009.4
20260509185055 31 143 0.0 4.8 0.00 0.03 0.00 64 1009.6
20260509184045 30 127 1.6 4.8 0.00 0.03 0.00 65 1009.8
20260509183034 30 353 0.0 3.2 0.00 0.03 0.00 69 1009.8
20260509182044 30 313 1.6 3.2 0.00 0.03 0.00 65 1009.9
20260509181135 30 295 1.6 3.2 0.00 0.03 0.00 66 1010.2